sat.trackr.live / text

‹ back to catalog

STARLINK-33903

NORAD 63828 · 2025-092AA

PAYLOAD ACTIVE UNKNOWN

§ Identity

Operator
Country
US
Launch date
2025-05-04
Launch site
AFETR
Launch vehicle
Mass (kg)
RCS (m²)

Purposes: comms

External: N2YO · Heavens-Above · Gunter

§ Orbital elements

Epoch: 2026-09-20T22:14:42.032832Z

Period
94.27 min
Inclination
43.0006°
Eccentricity
0.0001588
Mean motion
15.27590276 rev/d
Perigee alt
481.9 km
Apogee alt
484.1 km
Semi-major
6,861.2 km
B*
6.0772e-4
RAAN
149.9402°
Arg perigee
284.9565°
Mean anomaly
75.1111°
Rev number
7,852

§ Raw data

STARLINK-339031 63828U 25092AA  26263.92687538  .00016504  00000+0  60772-3 0  99922 63828  43.0006 149.9402 0001588 284.9565  75.1111 15.27590276 78524

JSON: /api/v1/satellites/63828 · /tle

For live sub-satellite position, see the globe view (requires WebGL).

§ Visibility from observer

Set your observer location to see the next 7 days of passes ≥ 10°. The values pass through the URL so the page stays shareable.

No JS? Fill the form by hand. The geolocation button needs JavaScript.